Regional Weather Roundup
Issued by NWS Mt. Holly, NJ

Home | Current Version | Previous Version | Text Only | Print | Product List | Glossary On
Versions: 1 2 3 4 5 6 7 8 9 10 11 12 13 14 15 16 17 18 19 20 21 22 23 24 25 26 27 28 29 30 31 32 33 34 35 36 37 38 39 40 41 42 43 44 45 46 47 48 49 50
000
ASUS41 KPHI 012012
RWRPHI

REGIONAL WEATHER ROUNDUP
NATIONAL WEATHER SERVICE MOUNT HOLLY NJ
300 PM EST WED MAR 01 2017

NOTE:  "FAIR" INDICATES FEW OR NO CLOUDS BELOW 12,000 FEET WITH NO
SIGNIFICANT WEATHER AND/OR OBSTRUCTIONS TO VISIBILITY.

 * = STATION DOES NOT REPORT PRECIPITATION (E.G. RAIN, SNOW, ETC.)
        OR FOG.

NJZ015>026-012100-
SOUTHERN NEW JERSEY

CITY           SKY/WX    TMP DP  RH WIND       PRES   REMARKS
POMONA         MOSUNNY   66  57  72 S9        29.60F
WILDWOOD*      MOSUNNY   72  58  61 SW22G30   29.63F
MILLVILLE      CLOUDY    71  61  70 SW13G23   29.59F
WRIGHTSTOWN    PTSUNNY   73  60  65 SW28G35   29.53F
MOUNT HOLLY    MOSUNNY   73  59  61 SW17G32   29.55F
TRENTON        CLOUDY    73  59  61 SW21G30   29.53F

$$
NJZ001>014-012100-
NORTHERN NEW JERSEY

CITY           SKY/WX    TMP DP  RH WIND       PRES   REMARKS
SUSSEX         CLOUDY    62  58  86 SW7G16    29.52F
ANDOVER*         N/A     63  57  81 VRB7      29.52F
MORRISTOWN     CLOUDY    68  61  77 W7        29.52F
NEWARK         CLOUDY    72  60  66 SW18G26   29.50F
TETERBORO      CLOUDY    68  61  78 S8G20     29.50F
CALDWELL       CLOUDY    67  60  78 VRB6      29.51F
SOMERVILLE     CLOUDY    72  59  63 VRB7      29.49F
ALLAIRE*       CLOUDY    73  60  63 SW15G30   29.55F
TOMS RIVER*    CLOUDY    73  61  65 SW21G37   29.57F

$$
PAZ043-044-047-054-055-060>062-066>071-012100-
EASTERN PENNSYLVANIA

CITY           SKY/WX    TMP DP  RH WIND       PRES   REMARKS
PHILADELPHIA   LGT RAIN  71  61  70 SW21      29.57R
NORTH PHILA    CLOUDY    74  60  61 SW22G38   29.56S
BLUE BELL*     CLOUDY    70  59  68 SW17G30   29.55R
DOYLESTOWN     CLOUDY    71  59  65 SW9G22    29.53S
QUAKERTOWN*    CLOUDY    66  61  82 SW9G21    29.55S
PERKASIE*      LGT RAIN  68  59  73 SW10G23   29.56R
POTTSTOWN      RAIN      67  59  75 S21G29    29.54F
LANCASTER      PTSUNNY   66  62  87 SW10      29.51F
COATESVILLE    MOSUNNY   68  61  77 SW12G20   29.57S
READING        PTSUNNY   63  63 100 W6        29.53S
ALLENTOWN      RAIN      65  59  81 SW14      29.52F
MOUNT POCONO   CLOUDY    56  55  97 SW17G24   29.52F
HAZLETON       CLOUDY    59  55  88 S7        29.51F
LEHIGHTON      LGT RAIN  61  59  94 SW6       29.53F
WILKES BARRE   CLOUDY    63  56  78 SW13G21   29.44F

$$
DEZALL-MDZ008-012-015-019-020-012100-
DELAWARE AND EASTERN MARYLAND

CITY           SKY/WX    TMP DP  RH WIND       PRES   REMARKS
WILMINGTON     HVY RAIN  69  62  78 W16G22    29.59R
DOVER          RAIN      74  68  81 SW28G36   29.59R
GEORGETOWN     LGT RAIN  77  57  50 SW28G38   29.64F
ABERDEEN       CLOUDY    66  61  82 SW10      29.58R
PATUXENT       LGT RAIN  65  59  81 W21G39    29.72R
OCEAN CITY     MOSUNNY   68  58  70 SW21G31   29.69F
WALLOPS ISLAND MOSUNNY   70  59  68 S21G38    29.71F
CAMBRIDGE      CLOUDY    64  57  77 NW10G32   29.72R
SALISBURY      SUNNY     76  59  55 SW25G36   29.67S

$$
PAZ001-021-NYZ056-072-MDZ011-DCZ001-012100-
OTHER NEARBY LOCATIONS

CITY           SKY/WX    TMP DP  RH WIND       PRES   REMARKS
HARRISBURG     CLOUDY    62  55  77 SW12      29.51F
STATE COLLEGE  SUNNY     57  50  77 SW9       29.48F
WILLIAMSPORT   CLOUDY    63  55  75 S10       29.45F
BINGHAMTON     CLOUDY    59  51  75 SW16G26   29.36F
NEW YORK CITY  MOSUNNY   64  57  78 S5        29.54F
BALTIMORE      CLOUDY    69  52  54 SW17G26   29.59F
WASHINGTON DC  CLOUDY    72  51  47 SW14G22   29.64F

$$



USA.gov is the U.S. government's official web portal to all federal, state and local government web resources and services.